This demonstration page uses our WeatherBlox Daily Observations layout. Learn more.

Left ArrowRight Arrow

40.92945, -100.16068

Hourly Observations for September 24, 2016

Temp ( °F °C ) Dew Point ( °F °C ) Humidity (%) Winds ( mph kmh ) Pressure ( in mb ) Visibility ( mi km ) Precip ( " mm )
12:15 am 00:15 Clear 72 22.4 59 15.1 63 63 SSE 16 26 29.74 1007 10 16 N/A
12:35 am 00:35 Clear 72 22.1 60 15.3 65 65 SSE 14 22 29.74 1007 10 16 N/A
12:55 am 00:55 Clear 72 22.1 60 15.7 67 67 SSE 15 24 29.74 1007 10 16 N/A
1:15 am 01:15 Clear 72 22 61 16 69 69 SSE 15 24 29.74 1007 10 16 N/A
1:35 am 01:35 Clear 72 22 61 16.2 70 70 SSE 17 28 29.74 1007 10 16 N/A
1:55 am 01:55 Clear 72 22 62 16.5 71 71 SSE 15 24 29.71 1006 10 16 N/A
2:15 am 02:15 Clear 72 22 62 16.7 72 72 SSE 15 24 29.71 1006 10 16 N/A
2:35 am 02:35 Clear 71 21.9 63 17 74 74 SSE 15 24 29.71 1006 10 16 N/A
2:55 am 02:55 Mostly Cloudy 72 22 63 17.1 74 74 SSE 16 26 29.71 1006 10 16 N/A
3:15 am 03:15 Mostly Cloudy with Light Rain 70 21.1 64 17.6 81 81 SSE 16 26 29.74 1007 10 16 N/A
3:35 am 03:35 Partly Cloudy 70 21.1 64 17.6 81 81 SSE 12 19 29.74 1007 10 16 N/A
3:55 am 03:55 Partly Cloudy 70 21 64 17.7 82 82 SSE 12 19 29.74 1007 10 16 N/A
4:15 am 04:15 Partly Cloudy 70 21 64 18 83 83 SSE 13 20 29.74 1007 10 16 N/A
4:35 am 04:35 Partly Cloudy 71 21.4 64 18 81 81 SSE 15 24 29.74 1007 10 16 N/A
4:55 am 04:55 Clear 71 21.5 65 18.2 82 82 SSE 13 20 29.71 1006 10 16 N/A
5:15 am 05:15 Clear 70 21 65 18.2 84 84 SSE 14 22 29.74 1007 10 16 N/A
5:35 am 05:35 Clear 69 20.6 65 18.5 88 88 SSE 13 20 29.74 1007 10 16 N/A
5:55 am 05:55 Partly Cloudy 68 20.2 65 18.2 88 88 S 9 15 29.77 1008 10 16 N/A
6:15 am 06:15 Clear 68 20 64 17.9 88 88 SSW 10 17 29.77 1008 10 16 N/A
6:35 am 06:35 Clear 67 19.6 61 15.9 79 79 SSW 9 15 29.77 1008 10 16 N/A
6:55 am 06:55 Clear 66 18.7 58 14.5 77 77 SW 10 17 29.77 1008 10 16 N/A
7:15 am 07:15 Clear 64 17.9 57 13.9 78 78 WSW 7 11 29.83 1010 10 16 N/A
7:35 am 07:35 Sunny 58 14.4 51 10.6 78 78 WNW 9 15 29.85 1011 10 16 N/A
7:55 am 07:55 Sunny 57 14 51 10.5 80 80 WNW 9 15 29.88 1012 10 16 N/A
8:15 am 08:15 Sunny 57 14 50 10.1 78 78 WNW 10 17 29.88 1012 10 16 N/A
8:35 am 08:35 Sunny 58 14.3 49 9.7 74 74 WNW 12 19 29.88 1012 10 16 N/A
8:55 am 08:55 Sunny 58 14.5 49 9.6 73 73 WNW 9 15 29.88 1012 10 16 N/A
9:15 am 09:15 Sunny 59 15.1 49 9.7 70 70 WNW 10 17 29.88 1012 10 16 N/A
9:35 am 09:35 Sunny 58 14.7 49 9.5 71 71 NW 8 13 29.88 1012 10 16 N/A
9:55 am 09:55 Sunny 59 15.1 49 9.6 70 70 NW 9 15 29.91 1013 10 16 N/A
10:15 am 10:15 Sunny 60 15.6 49 9.5 67 67 WNW 12 19 29.91 1013 10 16 N/A
10:35 am 10:35 Sunny 60 15.7 49 9.5 67 67 NW 13 20 29.91 1013 10 16 N/A
10:55 am 10:55 Sunny 60 15.7 49 9.4 66 66 NW 8 13 29.91 1013 10 16 N/A
11:15 am 11:15 Sunny 61 16 49 9.3 65 65 NW 7 11 29.94 1014 10 16 N/A
11:35 am 11:35 Sunny 61 16.2 49 9.5 65 65 NNW 3 6 29.91 1013 10 16 N/A
11:55 am 11:55 Sunny 62 16.9 49 9.6 62 62 NNW 3 6 29.91 1013 10 16 N/A
12:15 pm 12:15 Sunny 64 17.8 50 10 60 60 NW 3 6 29.91 1013 10 16 N/A
12:35 pm 12:35 Sunny 66 18.7 50 9.9 57 57 N N/A 29.91 1013 10 16 N/A
12:55 pm 12:55 Sunny 68 20.2 51 10.3 53 53 WNW 3 6 29.88 1012 10 16 N/A
1:15 pm 13:15 Sunny 71 21.8 50 10 47 47 WNW 6 9 29.88 1012 10 16 N/A
1:35 pm 13:35 Sunny 72 22.3 50 10 46 46 NW 7 11 29.88 1012 10 16 N/A
1:55 pm 13:55 Sunny 74 23.1 50 9.8 43 43 NW 14 22 29.83 1010 10 16 N/A
2:15 pm 14:15 Sunny 73 23 46 7.8 38 38 NW 5 7 29.83 1010 10 16 N/A
2:35 pm 14:35 Sunny 74 23.5 46 7.9 37 37 NNW 8 13 29.80 1009 10 16 N/A
2:55 pm 14:55 Sunny 75 24.1 45 7.4 34 34 NNW 9 15 29.80 1009 10 16 N/A
3:15 pm 15:15 Sunny 75 24.1 44 6.9 33 33 WNW 7 11 29.80 1009 10 16 N/A
3:35 pm 15:35 Sunny 76 24.6 44 6.5 31 31 NW 9 15 29.77 1008 10 16 N/A
3:55 pm 15:55 Sunny 76 24.7 43 6.3 31 31 N N/A 29.80 1009 10 16 N/A
4:15 pm 16:15 Sunny 77 25.2 43 5.9 29 29 WNW 8 13 29.80 1009 10 16 N/A
4:35 pm 16:35 Sunny 77 25.1 42 5.3 28 28 WSW 5 7 29.80 1009 10 16 N/A
4:55 pm 16:55 Sunny 78 25.5 39 4.1 25 25 N N/A 29.80 1009 10 16 N/A
5:15 pm 17:15 Sunny 78 25.6 40 4.4 26 26 SSW 3 6 29.80 1009 10 16 N/A
5:35 pm 17:35 Sunny 78 25.5 41 5.1 27 27 SSW 3 6 29.80 1009 10 16 N/A
5:55 pm 17:55 Sunny 77 25.1 40 4.3 26 26 WSW 5 7 29.80 1009 10 16 N/A
6:15 pm 18:15 Sunny 77 24.9 40 4.4 27 27 NW 5 7 29.80 1009 10 16 N/A
6:35 pm 18:35 Sunny 76 24.3 41 5.2 29 29 WNW 5 7 29.80 1009 10 16 N/A
6:55 pm 18:55 Sunny 73 22.9 44 6.5 35 35 WNW 3 6 29.80 1009 10 16 N/A
7:15 pm 19:15 Sunny 73 23 42 5.4 32 32 N N/A 29.83 1010 10 16 N/A
7:35 pm 19:35 Clear 70 21 45 7.4 42 42 N N/A 29.85 1011 10 16 N/A
7:55 pm 19:55 Clear 67 19.4 49 9.4 53 53 W 3 6 29.85 1011 10 16 N/A
8:15 pm 20:15 Clear 63 17.3 49 9.2 59 59 W 5 7 29.91 1013 10 16 N/A
8:35 pm 20:35 Clear 61 16.1 48 9.1 63 63 W 6 9 29.94 1014 10 16 N/A
8:55 pm 20:55 Hazy 58 14.3 49 9.6 74 74 N N/A 29.97 1015 5 8 N/A
9:15 pm 21:15 Clear 57 14.1 49 9.6 75 75 N N/A 29.97 1015 7 11 N/A
9:35 pm 21:35 Clear 56 13.6 49 9.2 75 75 N 7 11 30.00 1016 7 11 N/A
9:55 pm 21:55 Clear 59 14.9 48 8.7 67 67 NW 5 7 30.00 1016 10 16 N/A
10:15 pm 22:15 Clear 55 12.8 47 8.3 74 74 WNW 6 9 30.03 1017 7 11 N/A
10:35 pm 22:35 Clear 54 12.4 46 8 75 75 WNW 8 13 30.03 1017 10 16 N/A
10:55 pm 22:55 Clear 53 11.5 46 7.9 79 79 WNW 3 6 30.03 1017 10 16 N/A
11:15 pm 23:15 Clear 53 11.7 46 7.8 77 77 WNW 12 19 30.03 1017 10 16 N/A
11:35 pm 23:35 Clear 57 14 44 6.5 61 61 NNW 9 15 30.00 1016 10 16 N/A
11:55 pm 23:55 Clear 55 12.8 44 6.5 66 66 NW 9 15 30.06 1018 10 16 N/A

Powered by AerisWeather